GW2352 Weather Reports


time (UTC)temp
C
wind
direction
speed
KPH
gust
KPH
rain 1hr
cm
rain 24hr
cm
rain mn
cm
humidity
%
barometer
mb
20260508141800 28 305 8.0 9.7 0.00 0.00 0.00 43 1015.0
20260508141257 28 297 6.4 9.7 0.00 0.00 0.00 44 1014.9
20260508140754 28 167 1.6 3.2 0.00 0.00 0.00 46 1015.0
20260508140251 28 73 4.8 4.8 0.00 0.00 0.00 45 1015.0
20260508135747 29 302 4.8 9.7 0.00 0.00 0.00 44 1015.0
20260508135243 28 14 3.2 3.2 0.00 0.00 0.00 46 1014.9
20260508134739 28 36 1.6 1.6 0.00 0.00 0.00 45 1015.0
20260508134236 30 296 4.8 8.0 0.00 0.00 0.00 44 1014.9
20260508133733 30 294 1.6 3.2 0.00 0.00 0.00 45 1015.0
20260508133231 29 153 0.0 0.0 0.00 0.00 0.00 46 1015.1
20260508132728 29 281 4.8 9.7 0.00 0.00 0.00 45 1015.0
20260508132226 28 299 4.8 4.8 0.00 0.00 0.00 46 1015.1
20260508131721 28 168 4.8 8.0 0.00 0.00 0.00 48 1015.0
20260508131218 29 269 6.4 11.3 0.00 0.00 0.00 46 1014.9
20260508130714 28 155 1.6 1.6 0.00 0.00 0.00 46 1015.1
20260508130212 29 309 4.8 4.8 0.00 0.00 0.00 46 1015.2
20260508125707 29 192 1.6 3.2 0.00 0.00 0.00 49 1015.2
20260508125203 28 2 3.2 4.8 0.00 0.00 0.00 48 1015.2
20260508124702 28 292 4.8 4.8 0.00 0.00 0.00 50 1015.3
20260508124159 28 199 4.8 12.9 0.00 0.00 0.00 50 1015.1
20260508123657 28 139 4.8 4.8 0.00 0.00 0.00 50 1015.3
20260508123155 28 197 4.8 8.0 0.00 0.00 0.00 50 1015.5
20260508122651 28 265 8.0 9.7 0.00 0.00 0.00 48 1015.7
20260508122147 29 99 9.7 12.9 0.00 0.00 0.00 48 1015.5
20260508121645 28 264 8.0 9.7 0.00 0.00 0.00 50 1015.7
20260508121143 28 170 3.2 4.8 0.00 0.00 0.00 52 1015.4
20260508120640 28 154 3.2 4.8 0.00 0.00 0.00 52 1015.5
20260508120139 28 168 4.8 8.0 0.00 0.00 0.00 53 1015.8
20260508115636 27 202 4.8 4.8 0.00 0.00 0.00 54 1015.8
20260508115133 27 116 6.4 8.0 0.00 0.00 0.00 55 1015.8
20260508114630 27 194 4.8 9.7 0.00 0.00 0.00 54 1015.6
20260508114126 27 190 1.6 3.2 0.00 0.00 0.00 55 1015.8
20260508113623 27 296 4.8 8.0 0.00 0.00 0.00 54 1015.9
20260508113122 27 151 3.2 4.8 0.00 0.00 0.00 55 1015.9
20260508112617 27 66 6.4 9.7 0.00 0.00 0.00 55 1016.0
20260508112115 27 121 3.2 3.2 0.00 0.00 0.00 56 1015.9
20260508111611 27 233 1.6 4.8 0.00 0.00 0.00 57 1016.0
20260508111108 27 180 8.0 9.7 0.00 0.00 0.00 55 1016.2
20260508110607 27 137 4.8 8.0 0.00 0.00 0.00 56 1016.1
20260508105557 27 250 3.2 8.0 0.00 0.00 0.00 57 1016.3
20260508105055 27 187 1.6 1.6 0.00 0.00 0.00 59 1016.1
20260508104552 27 162 3.2 3.2 0.00 0.00 0.00 58 1016.6
20260508104049 27 193 3.2 3.2 0.00 0.00 0.00 60 1016.3
20260508103546 27 173 6.4 9.7 0.00 0.00 0.00 58 1016.3
20260508103043 27 154 4.8 8.0 0.00 0.00 0.00 57 1016.4
20260508102540 27 196 4.8 8.0 0.00 0.00 0.00 59 1016.4
20260508102038 27 123 6.4 9.7 0.00 0.00 0.00 60 1016.3
20260508101535 27 264 4.8 9.7 0.00 0.00 0.00 61 1016.2
20260508101032 27 153 6.4 11.3 0.00 0.00 0.00 60 1016.3
20260508100531 27 164 3.2 4.8 0.00 0.00 0.00 60 1016.3
20260508100027 27 164 8.0 11.3 0.00 0.00 0.00 59 1016.5
20260508095524 26 171 6.4 9.7 0.00 0.00 0.00 58 1016.4
20260508095021 27 179 11.3 14.5 0.00 0.00 0.00 57 1016.7
20260508094518 26 152 1.6 1.6 0.00 0.00 0.00 57 1016.7
20260508094015 26 173 8.0 11.3 0.00 0.00 0.00 57 1016.6
20260508093512 26 154 3.2 4.8 0.00 0.00 0.00 58 1017.1
20260508093010 26 151 6.4 8.0 0.00 0.00 0.00 58 1016.8
20260508092506 26 151 4.8 8.0 0.00 0.00 0.00 60 1017.2
20260508092006 26 288 3.2 4.8 0.00 0.00 0.00 60 1017.2
20260508091502 26 175 3.2 4.8 0.00 0.00 0.00 59 1016.9
20260508090959 26 256 3.2 8.0 0.00 0.00 0.00 61 1017.3
20260508090458 25 163 4.8 4.8 0.00 0.00 0.00 61 1017.4
20260508085953 25 160 1.6 1.6 0.00 0.00 0.00 66 1017.3
20260508085449 25 184 1.6 1.6 0.00 0.00 0.00 66 1017.4
20260508084946 25 179 6.4 11.3 0.00 0.00 0.00 65 1017.7
20260508084443 25 215 6.4 9.7 0.00 0.00 0.00 62 1017.2
20260508083941 25 173 3.2 4.8 0.00 0.00 0.00 63 1017.5
20260508083438 25 181 8.0 12.9 0.00 0.00 0.00 61 1017.6
20260508082938 25 158 4.8 9.7 0.00 0.00 0.00 60 1017.7
20260508082435 25 143 4.8 8.0 0.00 0.00 0.00 60 1017.5
20260508081933 25 209 6.4 8.0 0.00 0.00 0.00 60 1017.8
20260508081430 24 130 8.0 9.7 0.00 0.00 0.00 61 1017.8
20260508080926 24 179 3.2 3.2 0.00 0.00 0.00 62 1017.7
20260508080424 24 181 3.2 3.2 0.00 0.00 0.00 61 1017.9
20260508075920 23 150 1.6 1.6 0.00 0.00 0.00 60 1017.8
20260508075418 23 260 3.2 4.8 0.00 0.00 0.00 59 1017.7
20260508074916 23 324 8.0 12.9 0.00 0.00 0.00 58 1017.8
20260508074413 23 254 8.0 9.7 0.00 0.00 0.00 57 1017.7
20260508073909 22 14 1.6 3.2 0.00 0.00 0.00 59 1017.8
20260508073408 22 159 8.0 11.3 0.00 0.00 0.00 59 1017.7
20260508072904 22 170 4.8 9.7 0.00 0.00 0.00 61 1017.5
20260508072400 22 154 1.6 4.8 0.00 0.00 0.00 64 1017.7
20260508071857 21 257 4.8 8.0 0.00 0.00 0.00 64 1017.6
20260508071356 21 174 6.4 9.7 0.00 0.00 0.00 67 1017.6
20260508070853 21 190 9.7 11.3 0.00 0.00 0.00 66 1017.6
20260508070351 21 151 1.6 4.8 0.00 0.00 0.00 67 1017.7
20260508065848 21 152 4.8 4.8 0.00 0.00 0.00 65 1017.8
20260508065347 21 152 4.8 8.0 0.00 0.00 0.00 64 1017.6
20260508064844 21 162 3.2 3.2 0.00 0.00 0.00 66 1017.5
20260508064341 21 153 1.6 1.6 0.00 0.00 0.00 67 1017.6
20260508063839 20 149 3.2 3.2 0.00 0.00 0.00 66 1017.7
20260508063337 20 166 1.6 1.6 0.00 0.00 0.00 69 1017.8
20260508062828 20 172 4.8 4.8 0.00 0.00 0.00 71 1017.8
20260508062326 20 170 3.2 3.2 0.00 0.00 0.00 72 1017.8
20260508061823 19 153 1.6 1.6 0.00 0.00 0.00 73 1017.8
20260508061320 19 142 3.2 3.2 0.00 0.00 0.00 74 1018.0
20260508060816 19 149 0.0 1.6 0.00 0.00 0.00 75 1017.9
20260508060314 19 165 1.6 3.2 0.00 0.00 0.00 75 1018.2
20260508055814 18 156 3.2 3.2 0.00 0.00 0.00 73 1018.2
20260508055312 18 146 1.6 1.6 0.00 0.00 0.00 75 1018.0
20260508054808 18 147 3.2 3.2 0.00 0.00 0.00 75 1018.0
20260508054306 18 144 0.0 1.6 0.00 0.00 0.00 76 1018.1
20260508053802 17 147 0.0 0.0 0.00 0.00 0.00 77 1017.8
20260508053300 17 134 0.0 0.0 0.00 0.00 0.00 77 1018.0
20260508052757 17 151 0.0 0.0 0.00 0.00 0.00 78 1018.0
20260508052254 16 108 0.0 0.0 0.00 0.00 0.00 78 1018.0
20260508051750 16 158 0.0 1.6 0.00 0.00 0.00 80 1018.1
20260508051245 16 147 0.0 1.6 0.00 0.00 0.00 80 1017.8
20260508050742 16 150 0.0 1.6 0.00 0.00 0.00 81 1018.0
20260508050240 16 153 1.6 1.6 0.00 0.00 0.00 80 1017.7
20260508045735 16 151 0.0 1.6 0.00 0.00 0.00 80 1017.7
20260508045233 16 146 0.0 1.6 0.00 0.00 0.00 81 1017.6
20260508044731 15 143 1.6 1.6 0.00 0.00 0.00 81 1017.6
20260508044228 15 141 0.0 0.0 0.00 0.00 0.00 82 1017.4
20260508043724 15 149 0.0 0.0 0.00 0.00 0.00 82 1017.4
20260508043222 15 153 0.0 0.0 0.00 0.00 0.00 82 1017.5
20260508042718 15 134 0.0 0.0 0.00 0.00 0.00 82 1017.2
20260508042215 15 135 0.0 0.0 0.00 0.00 0.00 82 1017.5
20260508041711 15 148 0.0 0.0 0.00 0.00 0.00 82 1017.3
20260508041208 15 135 0.0 0.0 0.00 0.00 0.00 82 1017.2
20260508040705 15 151 0.0 0.0 0.00 0.00 0.00 81 1017.1
20260508040202 15 142 0.0 0.0 0.00 0.00 0.00 81 1017.1
20260508035659 15 142 0.0 0.0 0.00 0.00 0.00 81 1016.8
20260508035157 15 151 0.0 0.0 0.00 0.00 0.00 81 1016.9
20260508034653 15 142 0.0 0.0 0.00 0.00 0.00 82 1016.8
20260508034150 14 142 0.0 0.0 0.00 0.00 0.00 82 1016.7
20260508033647 14 142 0.0 0.0 0.00 0.00 0.00 82 1016.7
20260508033146 14 147 0.0 0.0 0.00 0.00 0.00 82 1016.6
20260508032642 14 146 0.0 0.0 0.00 0.00 0.00 82 1016.6
20260508032139 14 143 0.0 0.0 0.00 0.00 0.00 82 1016.5
20260508031636 14 142 0.0 0.0 0.00 0.00 0.00 82 1016.4
20260508031133 14 161 0.0 0.0 0.00 0.00 0.00 81 1016.3
20260508030629 14 161 0.0 0.0 0.00 0.00 0.00 81 1016.1
20260508030127 14 161 0.0 0.0 0.00 0.00 0.00 81 1016.4
20260508025623 14 134 0.0 0.0 0.00 0.00 0.00 80 1016.2
20260508025120 14 103 0.0 0.0 0.00 0.00 0.00 81 1016.0
20260508024616 14 107 0.0 0.0 0.00 0.00 0.00 82 1016.3
20260508024114 14 137 0.0 0.0 0.00 0.00 0.00 83 1016.1
20260508023609 13 146 0.0 0.0 0.00 0.00 0.00 84 1016.1
20260508023107 13 141 0.0 0.0 0.00 0.00 0.00 84 1016.1
20260508022603 13 134 0.0 0.0 0.00 0.00 0.00 84 1015.7
20260508022100 13 133 0.0 0.0 0.00 0.00 0.00 84 1015.8
20260508021556 13 141 0.0 0.0 0.00 0.00 0.00 84 1015.6
20260508021052 13 141 0.0 0.0 0.00 0.00 0.00 84 1015.7
20260508020550 13 142 0.0 0.0 0.00 0.00 0.00 84 1015.7
20260508020048 14 127 0.0 0.0 0.00 0.00 0.00 84 1016.0
20260508015545 13 130 0.0 0.0 0.00 0.00 0.00 83 1015.9
20260508015041 14 141 0.0 0.0 0.00 0.00 0.00 83 1015.8
20260508014537 14 209 1.6 1.6 0.00 0.00 0.00 82 1015.9
20260508014034 14 140 0.0 0.0 0.00 0.00 0.00 82 1015.9
20260508013530 14 134 0.0 0.0 0.00 0.00 0.00 83 1015.9
20260508013027 13 294 1.6 3.2 0.00 0.00 0.00 83 1015.9
20260508012525 13 130 0.0 0.0 0.00 0.00 0.00 83 1016.0
20260508012023 13 137 0.0 0.0 0.00 0.00 0.00 83 1016.0
20260508011521 13 137 0.0 0.0 0.00 0.00 0.00 84 1015.9
20260508011018 14 137 0.0 0.0 0.00 0.00 0.00 84 1016.1
20260508010514 14 150 0.0 0.0 0.00 0.00 0.00 85 1016.0
20260508010011 14 145 0.0 0.0 0.00 0.00 0.00 85 1016.2
20260508005507 14 145 0.0 0.0 0.00 0.00 0.00 84 1016.3
20260508005004 14 145 0.0 0.0 0.00 0.00 0.00 85 1016.3
20260508004500 14 145 0.0 0.0 0.00 0.00 0.00 85 1016.3
20260508003957 14 145 0.0 0.0 0.00 0.00 0.00 85 1016.2
20260508003449 13 145 0.0 0.0 0.00 0.00 0.00 85 1016.3
20260508002946 13 145 0.0 0.0 0.00 0.00 0.00 85 1016.3
20260508002442 14 145 0.0 0.0 0.00 0.00 0.00 85 1016.5
20260508001938 14 147 0.0 0.0 0.00 0.00 0.00 84 1016.7
20260508001435 14 148 0.0 0.0 0.00 0.00 0.00 84 1016.6
20260508000931 14 151 0.0 0.0 0.00 0.00 0.00 83 1016.4
20260508000427 14 156 0.0 0.0 0.00 0.00 0.00 83 1016.6
20260507235924 15 161 0.0 1.6 0.00 0.00 0.00 83 1016.7
20260507235421 15 145 0.0 0.0 0.00 0.00 0.00 82 1016.8
20260507234918 15 143 0.0 0.0 0.00 0.00 0.00 82 1016.8
20260507234415 15 125 0.0 0.0 0.00 0.00 0.00 82 1016.8
20260507233911 15 100 0.0 1.6 0.00 0.00 0.00 83 1016.9
20260507233409 14 149 0.0 0.0 0.00 0.00 0.00 82 1016.8
20260507232908 14 114 1.6 1.6 0.00 0.00 0.00 82 1016.6
20260507232403 15 148 0.0 0.0 0.00 0.00 0.00 81 1016.7
20260507231901 15 156 0.0 0.0 0.00 0.00 0.00 81 1016.7
20260507231357 15 149 0.0 1.6 0.00 0.00 0.00 80 1016.9
20260507230853 15 125 0.0 0.0 0.00 0.00 0.00 81 1016.7
20260507230351 15 134 0.0 0.0 0.00 0.00 0.00 82 1016.9
20260507225850 14 159 0.0 1.6 0.00 0.00 0.00 83 1016.9
20260507225347 13 218 1.6 1.6 0.00 0.00 0.00 84 1017.2
20260507224843 14 137 0.0 0.0 0.00 0.00 0.00 85 1017.2
20260507224340 13 139 0.0 0.0 0.00 0.00 0.00 86 1017.2
20260507223836 13 137 0.0 0.0 0.00 0.00 0.00 87 1017.1
20260507223332 13 131 0.0 0.0 0.00 0.00 0.00 87 1016.8
20260507222830 13 137 0.0 0.0 0.00 0.00 0.00 87 1017.3
20260507222326 13 132 0.0 0.0 0.00 0.00 0.00 88 1017.2
20260507221823 13 133 0.0 0.0 0.00 0.00 0.00 88 1017.4
20260507221320 13 131 0.0 0.0 0.00 0.00 0.00 88 1017.4
20260507220816 13 132 0.0 0.0 0.00 0.00 0.00 88 1017.2
20260507220314 13 138 0.0 0.0 0.00 0.00 0.00 88 1017.1
20260507215809 13 314 1.6 1.6 0.00 0.00 0.00 89 1016.9
20260507215308 13 141 0.0 0.0 0.00 0.00 0.00 89 1017.2
20260507214804 13 127 0.0 0.0 0.00 0.00 0.00 89 1016.9
20260507214302 13 137 0.0 0.0 0.00 0.00 0.00 88 1017.1
20260507213802 13 151 0.0 0.0 0.00 0.00 0.00 88 1017.1
20260507213259 14 131 0.0 0.0 0.00 0.00 0.00 87 1016.9
20260507212756 14 175 3.2 3.2 0.00 0.00 0.00 87 1017.2
20260507212252 14 152 0.0 1.6 0.00 0.00 0.00 86 1017.3
20260507211748 14 284 4.8 4.8 0.00 0.00 0.00 86 1016.8
20260507211245 15 141 0.0 0.0 0.00 0.00 0.00 86 1016.8
20260507210742 15 280 3.2 3.2 0.00 0.00 0.00 85 1016.9
20260507210239 15 292 3.2 3.2 0.00 0.00 0.00 85 1017.1
20260507205735 15 141 1.6 1.6 0.00 0.00 0.00 84 1016.8
20260507205232 15 282 1.6 1.6 0.00 0.00 0.00 84 1016.9
20260507204728 15 133 1.6 1.6 0.00 0.00 0.00 84 1016.6
20260507204227 15 185 1.6 1.6 0.00 0.00 0.00 84 1016.6
20260507203724 15 212 0.0 1.6 0.00 0.00 0.00 85 1016.8
20260507203221 14 291 1.6 3.2 0.00 0.00 0.00 86 1016.4
20260507202717 15 55 1.6 1.6 0.00 0.00 0.00 86 1016.5
20260507202213 15 175 1.6 1.6 0.00 0.00 0.00 85 1016.6
20260507201708 14 158 0.0 0.0 0.00 0.00 0.00 85 1016.4
20260507201206 14 190 0.0 0.0 0.00 0.00 0.00 85 1016.7
20260507200702 15 167 0.0 1.6 0.00 0.00 0.00 85 1016.5
20260507200158 15 133 0.0 0.0 0.00 0.00 0.00 85 1016.5
20260507195654 15 154 0.0 0.0 0.00 0.00 0.00 85 1016.4
20260507195152 15 135 0.0 0.0 0.00 0.00 0.00 84 1016.5
20260507194648 15 144 0.0 0.0 0.00 0.00 0.00 84 1016.6
20260507194144 15 20 1.6 1.6 0.00 0.00 0.00 84 1016.6
20260507193641 15 36 1.6 1.6 0.00 0.00 0.00 84 1016.6
20260507193138 15 134 0.0 1.6 0.00 0.00 0.00 84 1016.7
20260507192634 15 184 0.0 1.6 0.00 0.00 0.00 84 1016.7
20260507192131 15 96 0.0 0.0 0.00 0.00 0.00 84 1016.4
20260507191627 15 99 0.0 1.6 0.00 0.00 0.00 84 1016.6
20260507191124 15 166 1.6 1.6 0.00 0.00 0.00 83 1016.6
20260507190621 15 118 0.0 1.6 0.00 0.00 0.00 83 1016.5
20260507190120 15 142 0.0 0.0 0.00 0.00 0.00 82 1016.8
20260507185618 15 135 0.0 1.6 0.00 0.00 0.00 82 1016.7
20260507185114 15 142 0.0 0.0 0.00 0.00 0.00 80 1016.6
20260507184612 15 147 0.0 0.0 0.00 0.00 0.00 79 1016.7
20260507184110 16 141 0.0 0.0 0.00 0.00 0.00 79 1016.8
20260507183606 16 244 1.6 1.6 0.00 0.00 0.00 78 1016.7
20260507183103 16 146 0.0 1.6 0.00 0.00 0.00 75 1016.7
20260507182559 16 169 1.6 1.6 0.00 0.00 0.00 69 1016.7
20260507182055 17 180 0.0 0.0 0.00 0.00 0.00 70 1016.7
20260507181553 17 125 0.0 1.6 0.00 0.00 0.00 69 1016.5
20260507181049 17 134 0.0 1.6 0.00 0.00 0.00 68 1016.4
20260507180545 17 160 0.0 0.0 0.00 0.00 0.00 69 1016.5
20260507180042 17 173 0.0 0.0 0.00 0.00 0.00 67 1016.5
20260507175538 17 135 0.0 0.0 0.00 0.00 0.00 65 1016.6
20260507175036 17 225 1.6 1.6 0.00 0.00 0.00 66 1016.7
20260507174533 17 144 0.0 0.0 0.00 0.00 0.00 65 1016.5
20260507174031 17 146 0.0 0.0 0.00 0.00 0.00 65 1016.4
20260507173527 17 114 0.0 1.6 0.00 0.00 0.00 66 1016.6
20260507173025 17 140 0.0 1.6 0.00 0.00 0.00 64 1016.3
20260507172520 18 147 0.0 0.0 0.00 0.00 0.00 64 1016.1
20260507172017 18 148 1.6 1.6 0.00 0.00 0.00 64 1016.2
20260507171513 18 146 1.6 1.6 0.00 0.00 0.00 61 1016.3
20260507171010 18 132 1.6 1.6 0.00 0.00 0.00 62 1016.2
20260507170507 18 133 0.0 0.0 0.00 0.00 0.00 63 1016.3
20260507170003 18 132 0.0 0.0 0.00 0.00 0.00 62 1016.5
20260507165459 18 131 1.6 1.6 0.00 0.00 0.00 61 1016.2
20260507164950 18 162 1.6 1.6 0.00 0.00 0.00 59 1016.3
20260507164447 18 229 3.2 3.2 0.00 0.00 0.00 60 1016.0
20260507163944 18 135 0.0 0.0 0.00 0.00 0.00 61 1016.1
20260507163442 18 137 0.0 0.0 0.00 0.00 0.00 61 1016.2
20260507162938 19 135 0.0 0.0 0.00 0.00 0.00 60 1015.9
20260507162434 19 130 3.2 3.2 0.00 0.00 0.00 60 1015.9
20260507161931 20 154 0.0 0.0 0.00 0.00 0.00 61 1015.8
20260507161428 20 209 0.0 1.6 0.00 0.00 0.00 61 1016.1
20260507160924 20 151 0.0 1.6 0.00 0.00 0.00 60 1015.8
20260507160420 21 205 0.0 1.6 0.00 0.00 0.00 60 1015.9
20260507155916 21 319 0.0 1.6 0.00 0.00 0.00 58 1015.7
20260507155412 21 118 1.6 3.2 0.00 0.00 0.00 58 1015.8
20260507154909 21 204 3.2 3.2 0.00 0.00 0.00 58 1015.8
20260507154406 22 133 0.0 1.6 0.00 0.00 0.00 58 1016.0
20260507153903 22 144 0.0 1.6 0.00 0.00 0.00 57 1015.7
20260507153359 22 120 1.6 1.6 0.00 0.00 0.00 56 1015.8
20260507152856 22 157 0.0 1.6 0.00 0.00 0.00 55 1015.9
20260507152353 23 152 1.6 1.6 0.00 0.00 0.00 53 1016.1
20260507151849 22 162 0.0 0.0 0.00 0.00 0.00 54 1016.1
20260507151345 23 153 1.6 1.6 0.00 0.00 0.00 52 1016.1
20260507150842 23 149 0.0 0.0 0.00 0.00 0.00 54 1016.1
20260507150339 23 152 1.6 1.6 0.00 0.00 0.00 54 1016.2
20260507145835 22 144 1.6 3.2 0.00 0.00 0.00 54 1016.0
20260507145331 23 146 3.2 3.2 0.00 0.00 0.00 51 1015.8
20260507144828 23 170 1.6 3.2 0.00 0.00 0.00 52 1015.9
20260507144326 23 153 1.6 3.2 0.00 0.00 0.00 51 1016.0
20260507143822 23 286 4.8 8.0 0.00 0.00 0.00 51 1016.1
20260507143319 24 281 3.2 4.8 0.00 0.00 0.00 51 1015.9
20260507142814 24 179 1.6 3.2 0.00 0.00 0.00 51 1015.9
20260507142311 25 1 4.8 4.8 0.00 0.00 0.00 50 1015.9